{"data":{"norad_id":59771,"intl_designator":"2024-091U","name":"STARLINK-31786","alt_names":[],"object_type":"PAYLOAD","status":"ACTIVE","operator":null,"country":"US","launch_date":"2024-05-14","launch_site_code":"AFWTR","launch_vehicle":null,"mission":null,"orbit_class":"UNKNOWN","rcs_meters":null,"size_class":null,"mass_kg":null,"dimensions":null,"purposes":["comms"],"wikipedia_slug":null,"has_3d_model":false,"image_url":null,"decayed_at":null,"tle_current":{"epoch":"2026-05-25T01:18:47.382048Z","epoch_age_seconds":81022,"freshness":"FRESH","line1":"1 59771U 24091U   26145.05471507  .00000274  00000+0  21389-4 0  9991","line2":"2 59771  53.1618  32.3609 0001203  95.6057 264.5081 15.30196496114697","mean_motion":15.30196496,"eccentricity":0.0001203,"inclination_deg":53.1618,"raan_deg":32.3609,"arg_perigee_deg":95.6057,"mean_anomaly_deg":264.5081,"bstar":2.1389e-5,"rev_number":11469,"period_min":94.105561198462,"perigee_km":474.40107223912,"apogee_km":476.04999126426,"semimajor_km":6853.3625317517,"source":"CELESTRAK","updated_at":"2026-05-25T13:38:19.079391Z"}}}